Terminal Aerodrome Forecast
Issued by NWS

Home | Current Version | Previous Version | Text Only | Print | Product List | Glossary On
Versions: 1 2 3 4 5 6 7 8 9 10 11 12 13 14 15
000
FTUS46 KMTR 290500
TAFOAK
TAF
KOAK 290538Z 2906/3012 28006KT P6SM BKN005 OVC008
     FM291900 29011KT P6SM FEW008
     FM292200 28013KT P6SM FEW008
     FM300100 28012KT P6SM BKN008
     FM300600 27007KT P6SM OVC006=

USA.gov is the U.S. government's official web portal to all federal, state and local government web resources and services.